sat.trackr.live / text

‹ back to catalog

STARLINK-34923

NORAD 65247 · 2025-179N

PAYLOAD ACTIVE UNKNOWN

§ Identity

Operator
Country
US
Launch date
2025-08-18
Launch site
AFWTR
Launch vehicle
Mass (kg)
RCS (m²)

Purposes: comms

External: N2YO · Heavens-Above · Gunter

§ Orbital elements

Epoch: 2026-09-20T14:41:28.252320Z

Period
93.91 min
Inclination
97.2834°
Eccentricity
0.0001492
Mean motion
15.33449129 rev/d
Perigee alt
464.5 km
Apogee alt
466.6 km
Semi-major
6,843.7 km
B*
3.5778e-4
RAAN
302.9816°
Arg perigee
90.3937°
Mean anomaly
269.7477°
Rev number
6,137

§ Raw data

STARLINK-349231 65247U 25179N   26263.61213255  .00011495  00000+0  35778-3 0  99942 65247  97.2834 302.9816 0001492  90.3937 269.7477 15.33449129 61375

JSON: /api/v1/satellites/65247 · /tle

For live sub-satellite position, see the globe view (requires WebGL).

§ Visibility from observer

Set your observer location to see the next 7 days of passes ≥ 10°. The values pass through the URL so the page stays shareable.

No JS? Fill the form by hand. The geolocation button needs JavaScript.